Regional Weather Roundup
Issued by NWS Upton, NY

Current Version | Previous Version | Graphics & Text | Print | Product List | Glossary Off
Versions: 1 2 3 4 5 6 7 8 9 10 11 12 13 14 15 16 17 18 19 20 21 22 23 24 25 26 27

000
ASUS41 KOKX 200106
RWROKX

Regional Weather Roundup
National Weather Service New York NY
900 PM EDT SAT MAY 19 2018

Note: "FAIR" indicates few or no clouds below 12,000 feet with no
significant weather and/or obstructions to visibility.

NYZ071-072-176-178-NJZ106-104-200200-
New York City Metro Area

CITY           SKY/WX    TMP DP  RH WIND       PRES   REMARKS
Central Park   FOG       56  55  97 CALM      30.12S VSB 1
Bronx Bot Gard   N/A     54  52  94 CALM      30.09F
Bronx Lehman C   N/A     54  52  94 E5          N/A
LaGuardia Arpt FOG       55  54  96 NE5       30.10R VSB 1/4
Queens College   N/A     54  54 100 N6          N/A
Kennedy Intl   FOG       56  56 100 CALM      30.10S VSB 1/4
Breezy Point     N/A     54 N/A N/A NE3         N/A
Brooklyn Coll    N/A     57  55  94 E2          N/A
Staten Island    N/A     57  57 100 E3          N/A
Newark/Liberty FOG       55  55 100 NE5       30.08F VSB 1/2
Teterboro      DRZL/FOG  55  55 100 NE3       30.08F VSB 1/2
$$

NYZ177-179-078>081-200200-
Long Island New York

CITY           SKY/WX    TMP DP  RH WIND       PRES   REMARKS
Jones Beach      N/A     54 N/A N/A E2          N/A
Wantagh          N/A     55  55 100 E3          N/A
Hempstead        N/A     57  55  94 CALM      30.12R
Matinecock Pt    N/A     52 N/A N/A E10         N/A
Farmingdale    FOG       56  56 100 CALM      30.09F VSB 1/2
MacArthur/ISP  DRZL/FOG  57  57 100 S7        30.09S VSB 1/8
Stony Brook      N/A     55  55 100 S2          N/A
Shirley        FOG       57  57 100 VRB6      30.10F VSB 1/4
Mt Sinai Harb    N/A    N/A N/A N/A MISG        N/A
Westhampton    FOG       57  56  96 S7        30.11F VSB 1/4
East Hampton   FOG       55  55  99 CALM      30.10F VSB 1/2
Southold         N/A     57  57 100 S6          N/A
Montauk          N/A     57  57 100 VRB5      30.12F
$$

NYZ052-065-067-200200-
Hudson Valley

CITY           SKY/WX    TMP DP  RH WIND       PRES   REMARKS
White Plains   DRZL/FOG  53  52  96 CALM      30.09S VSB 1/4
Larchmont Harb   N/A     52 N/A N/A NE12        N/A
Croton On Huds   N/A     55 N/A N/A SE2         N/A
Somers           N/A     54  52  94 SE1         N/A
Brewster         N/A     52  52 100 SE2         N/A
Newburgh       DRIZZLE   54  54 100 CALM      30.09F FOG
Montgomery     CLOUDY    54  53  97 CALM      30.07F
Otisville        N/A     52  52 100 N1          N/A
Warwick          N/A     55  55 100 N3          N/A
Suffern          N/A     54  54 100 CALM        N/A
Poughkeepsie   CLOUDY    55  53  93 CALM      30.08F FOG
Albany         CLOUDY    55  52  89 S7        30.05F
$$

NJZ001-105-106-008-010-013-015-019>022-104-200200-
New Jersey

CITY           SKY/WX    TMP DP  RH WIND       PRES   REMARKS
Newark/Liberty FOG       55  55 100 NE5       30.08F VSB 1/2
Teterboro      DRZL/FOG  55  55 100 NE3       30.08F VSB 1/2
Caldwell       FOG       55  55 100 E5        30.08F VSB 1
Somerville     FOG       56  56 100 S3        30.07F VSB 3/4
Linden         CLOUDY    57  56  95 CALM      30.09F FOG
Perth Amboy      N/A     55 N/A N/A E5          N/A
Sussex         CLOUDY    56  55  97 CALM      30.08S
Andover          N/A     56  56 100 CALM      30.07F
Trenton        FOG       57  57 100 E5        30.07S VSB 1/4
Millville      LGT RAIN  68  67  96 CALM      30.07F
Atlantic City  FOG       66  65  96 S10       30.08F VSB 1
Wrightstown    CLOUDY    64  64 100 NW7       30.05  FOG
Toms River     CLOUDY    66  65  96 S7        30.09S FOG
Belmar         FOG       58  58 100 CALM      30.09F VSB 1/4
$$

PAZ047>061-062-071-200200-
Eastern Pennsylvania

CITY           SKY/WX    TMP DP  RH WIND       PRES   REMARKS
Philadelphia   CLOUDY    63  62  97 NE5       30.07  FOG
Allentown      CLOUDY    57  55  93 E3        30.07F FOG
Scranton       LGT RAIN  59  58  96 VRB5      30.05S
$$

CTZ002-004>006-009-010-012-RIZ004-006-007-MAZ004-011-015-200200-
Southern New England

 In CT

CITY           SKY/WX    TMP DP  RH WIND       PRES   REMARKS
Bradley Intl   DRZL/FOG  57  57 100 S3        30.10F VSB 1
Hartford       CLOUDY    56  55  97 CALM      30.10F
Danbury        CLOUDY    52  52 100 SE5       30.10F FOG
Wtrbury/Oxford FOG       53  52  96 CALM      30.11S VSB 1/2
Norwalk Harbor   N/A     50 N/A N/A NE12        N/A
Bridgeport     CLOUDY    53  52  96 NE7       30.10S FOG
Meriden        CLOUDY    54  53  97 W3        30.10F
New Haven      FOG       53  53 100 VRB3      30.10F VSB 1
Chester        FOG       54  54 100 CALM      30.10F VSB 1/4
Groton         FOG       52  52 100 E3        30.11F VSB 3/4
Willimantic    CLOUDY    56  54  93 S3        30.11F

 In RI

CITY           SKY/WX    TMP DP  RH WIND       PRES   REMARKS
Providence     DRIZZLE   55  54  96 S9        30.12F FOG
Block Island   LGT RAIN  56  56 100 S12       30.11F VSB 1/2
Westerly       FOG       54  54 100 VRB3      30.12F VSB 1/2

In MA

CITY           SKY/WX    TMP DP  RH WIND       PRES   REMARKS
Boston         CLOUDY    53  52  96 CALM      30.12F FOG
Worcester      FOG       51  50  96 CALM      30.11F VSB 1/4
Westfield      LGT RAIN  54  54 100 N3        30.09  FOG
Provincetown   CLOUDY    54  54 100 S15       30.12F FOG
Nantucket      FOG       51  51 100 S9        30.15F VSB 1/2
$$

ANZ330-335-338-340-345-350-353-355-200200-
Coastal Marine Observations


STATION/POSITION TIME  SKY/WX   TEMP    WIND        PRES    VSBY  WAVE
                                AIR SEA DIR/SP/G                  HT/PER
                 (UTC)          (F)     (DEG/KT/KT) (MB)    (MI)  (FT/S)
NY Harb Entrance 0050            54 53  200/  4/  4 1018.8          3/ 6
20 S Fire Island 0050            56 51  200/ 14/ 16 1018.7          4/ 6
23 SSW Montauk P 0050            56 50  200/ 12/ 14 1019.5          3/ 8
15 E Barnegat Li 0030               53                N/A           5/ 7
Hudson Canyon    0050            58 51  180/ 12/ 12 1019.7          4/ 6
Kings Point      0048            53 54   70/  6/  7 1020.0
Execution Rocks  NOT AVBL
Western LI Sound NOT AVBL
Central LI Sound NOT AVBL
Robbins Reef     0048            57      40/  3/  3 1019.4
$$


>>>>>>>>>>>>>>>>>>>>>>>>>>>> KEY <<<<<<<<<<<<<<<<<<<<<<<<<<<
>                                                          <
>     SKY/WX - Sky Condition/Present Weather               <
>     TMP    - Temperature in Fahrenheit                   <
>     DP     - Dew Point in Fahrenheit                     <
>     RH     - Relative Humidity in Percent                <
>     WIND   - Direction (from) and Speed in MPH           <
>     PRES   - Mean Sea Level Pressure (inches of Hg)      <
>     WCI    - Wind Chill Index                            <
>     VSB    - Visibility in Miles                         <
>     HX     - Heat Index                                  <
>     TC     - Temperature in Celsius                      <
>     VRB    - Varibale Wind Direction                     <
>                                                          <
>>>>>>>>>>>>>>>>>>>>>>>>>>>> KEY <<<<<<<<<<<<<<<<<<<<<<<<<<<




USA.gov is the U.S. government's official web portal to all federal, state and local government web resources and services.